Location: Newark
(10.3333°N, 37.7167°E)
Time: 02:02:41
(UTC+00:00)

LightSail 2 - Pass Details

Date: 05 February 2020
Orbit: 698 x 723 km, 24.0° (Epoch: 25 February)

Event Time Altitude Azimuth Distance (km) Brightness Sun altitude
Rises 03:05:39 0° 216° (SW) 3,119 8.2 -11.7°
Reaches altitude 10° 03:08:46 10° 198° (SSW) 2,197 7.6 -11.0°
Maximum altitude 03:12:22 19° 154° (SSE) 1,678 7.6 -10.1°
Drops below altitude 10° 03:15:57 10° 110° (ESE) 2,189 9.3 -9.3°
Sets 03:19:02 0° 92° (E) 3,104 10.4 -8.6°
